DW2380 Paimio FI current weather conditions

sailwx.info

Wind from 126

Air temperature 21.7° C
Dewpoint 19.2° C

Last reported at 2014-Jul-30 16:48 UTC.
Time now 2014-Jul-30 17:16 UTC

Location: N 60°28' E 022°40'.
View on Google Maps.

See reports from other nearby stations

  
Tides and Currents Weather Stations Pressure Air Temp Water Temp Dewpoint Dewpoint Depression Visibility Wind Speed Wind Dir Waves Ship Positions
date/time (UTC)wind fromknots sea level pressurealtimeterstation pressurevisibilityair tempwater tempwave heightnotes
2014-Jul-30 16:48 126 21.7
2014-Jul-30 16:33 104 21.7
2014-Jul-30 16:18 103 21.1
2014-Jul-30 16:03 106 21.1
2014-Jul-30 15:47 086 21.1
2014-Jul-30 15:17 153 21.1
2014-Jul-30 14:47 210 7 gusting 11 22.2
2014-Jul-30 14:32 198 15 gusting 26 24.4
2014-Jul-30 14:16 149 11 gusting 20 26.1
2014-Jul-30 14:02 153 7 gusting 15 26.7
2014-Jul-30 13:47 161 10 gusting 16 27.2
2014-Jul-30 13:31 215 6 gusting 17 27.8
2014-Jul-30 13:16 138 7 gusting 18 28.3
2014-Jul-30 13:01 155 7 gusting 14 28.9
2014-Jul-30 12:46 140 7 gusting 16 28.3
2014-Jul-30 12:31 117 9 gusting 15 27.8
2014-Jul-30 12:16 147 5 gusting 11 28.9
2014-Jul-30 12:01 136 6 gusting 14 29.4
2014-Jul-30 11:46 142 7 gusting 16 29.4
2014-Jul-30 11:31 165 8 gusting 14 30.0
2014-Jul-30 11:16 114 6 gusting 13 30.0
2014-Jul-30 11:01 166 5 gusting 13 30.0
2014-Jul-30 10:46 118 11 gusting 15 29.4
2014-Jul-30 10:29 134 7 gusting 13 29.4
2014-Jul-30 10:14 199 5 gusting 13 29.4
2014-Jul-30 09:59 142 6 gusting 13 28.9
2014-Jul-30 09:44 128 4 gusting 10 29.4
2014-Jul-30 09:29 105 5 gusting 11 30.0
2014-Jul-30 09:14 161 4 gusting 7 29.4
2014-Jul-30 08:59 134 4 gusting 7 28.9
2014-Jul-30 08:43 146 4 gusting 7 28.9
2014-Jul-30 08:28 107 4 gusting 10 28.3
2014-Jul-30 08:14 139 2 gusting 9 28.3
2014-Jul-30 07:57 150 4 gusting 7 27.8
2014-Jul-30 07:42 129 3 gusting 7 27.8
2014-Jul-30 07:27 119 6 gusting 10 27.2
2014-Jul-30 07:12 117 5 gusting 8 26.7
2014-Jul-30 06:57 118 1 gusting 6 26.1
2014-Jul-30 06:42 161 25.6
2014-Jul-30 06:26 101 24.4
2014-Jul-30 06:11 101 23.3
2014-Jul-30 05:56 089 22.2
2014-Jul-30 05:41 083 21.1
2014-Jul-30 05:26 075 19.4
2014-Jul-30 05:11 336 18.3
2014-Jul-30 04:56 343 17.2
2014-Jul-30 04:41 343 16.7
2014-Jul-30 04:26 343 15.6
2014-Jul-30 04:11 343 15.0
2014-Jul-30 03:56 343 14.4
2014-Jul-30 03:39 343 13.9
2014-Jul-30 03:24 343 13.9
2014-Jul-30 03:09 343 13.9
2014-Jul-30 02:54 343 13.9
2014-Jul-30 02:40 343 14.4
2014-Jul-30 02:24 343 14.4
2014-Jul-30 01:53 343 14.4
2014-Jul-30 01:38 343 14.4
2014-Jul-30 01:23 343 14.4
2014-Jul-30 01:08 343 15.0
2014-Jul-30 00:53 258 15.0
2014-Jul-30 00:38 258 15.0
2014-Jul-30 00:22 258 15.0
2014-Jul-30 00:08 258 15.0
2014-Jul-29 23:52 258 15.6
2014-Jul-29 23:37 258 15.6
2014-Jul-29 23:22 258 15.6
2014-Jul-29 23:07 258 16.1
2014-Jul-29 22:51 258 16.1
2014-Jul-29 22:36 258 16.7
2014-Jul-29 22:21 258 16.7
2014-Jul-29 22:06 258 16.7
2014-Jul-29 21:51 258 17.2
2014-Jul-29 21:36 258 17.2
2014-Jul-29 21:21 258 17.8
2014-Jul-29 21:06 258 18.3
2014-Jul-29 20:51 258 18.3
2014-Jul-29 20:36 258 18.9
2014-Jul-29 20:21 258 19.4
2014-Jul-29 20:06 258 20.0
2014-Jul-29 19:49 258 20.6
2014-Jul-29 19:34 258 21.7
2014-Jul-29 19:19 258 22.8
2014-Jul-29 19:04 258 23.3
2014-Jul-29 18:49 257 24.4
2014-Jul-29 18:34 261 25.0
2014-Jul-29 18:19 261 25.6
2014-Jul-29 18:04 261 26.1
2014-Jul-29 17:48 261 1 gusting 4 26.7
2014-Jul-29 17:33 240 0 gusting 6 26.7
2014-Jul-29 17:18 265 2 gusting 6 27.2
2014-Jul-29 17:03 255 0 gusting 5 27.8
2014-Jul-29 16:48 237 2 gusting 6 27.8
2014-Jul-29 16:32 221 1 gusting 9 28.3
2014-Jul-29 16:17 223 3 gusting 6 28.9
2014-Jul-29 16:02 250 6 gusting 12 28.9
2014-Jul-29 15:47 193 4 gusting 7 28.3
2014-Jul-29 15:32 238 6 gusting 9 28.3
2014-Jul-29 15:17 309 5 gusting 8 28.9
2014-Jul-29 15:01 277 4 gusting 7 28.9
2014-Jul-29 14:46 211 5 gusting 9 28.9
2014-Jul-29 14:31 230 4 gusting 10 28.9
2014-Jul-29 14:17 224 6 gusting 11 29.4
2014-Jul-29 14:01 223 6 gusting 9 29.4
2014-Jul-29 13:46 202 4 gusting 9 30.0
2014-Jul-29 13:31 194 6 gusting 13 30.0
2014-Jul-29 13:16 201 6 gusting 13 30.0
2014-Jul-29 13:01 254 6 gusting 14 30.0
2014-Jul-29 12:46 248 5 gusting 10 29.4
2014-Jul-29 12:31 209 8 gusting 14 29.4
2014-Jul-29 12:16 207 7 gusting 14 29.4
2014-Jul-29 12:01 200 8 gusting 15 28.9
2014-Jul-29 11:44 211 6 gusting 13 28.9
2014-Jul-29 11:29 212 10 gusting 16 29.4
2014-Jul-29 11:14 189 7 gusting 14 29.4
2014-Jul-29 10:59 180 8 gusting 17 28.9
2014-Jul-29 10:44 193 8 gusting 23 29.4
2014-Jul-29 10:29 182 7 gusting 12 29.4
2014-Jul-29 10:14 166 7 gusting 13 28.3
2014-Jul-29 09:58 168 7 gusting 13 28.9
2014-Jul-29 09:43 163 8 gusting 13 28.9
2014-Jul-29 09:28 192 6 gusting 15 28.3
2014-Jul-29 09:13 193 4 gusting 7 28.3
2014-Jul-29 08:58 161 3 gusting 8 28.3
2014-Jul-29 08:42 187 5 gusting 11 28.3
2014-Jul-29 08:27 154 2 gusting 8 28.3
2014-Jul-29 08:12 186 6 gusting 9 27.8
2014-Jul-29 07:57 184 1 gusting 7 27.2
2014-Jul-29 07:42 176 5 gusting 10 26.7
2014-Jul-29 07:27 163 5 gusting 8 26.1
2014-Jul-29 07:12 148 3 gusting 9 25.6
2014-Jul-29 06:56 138 5 gusting 11 25.6
2014-Jul-29 06:41 143 3 gusting 7 25.0
2014-Jul-29 06:26 167 1 gusting 7 24.4
2014-Jul-29 06:11 152 2 gusting 6 23.9
2014-Jul-29 05:56 158 3 gusting 6 23.3
2014-Jul-29 05:41 144 0 gusting 5 22.2
2014-Jul-29 05:26 127 21.1
2014-Jul-29 05:11 185 20.0
2014-Jul-29 04:56 288 19.4
2014-Jul-29 04:41 155 17.8
2014-Jul-29 04:24 155 17.2
2014-Jul-29 04:09 155 16.7
2014-Jul-29 03:54 155 16.1
2014-Jul-29 03:39 155 15.6
2014-Jul-29 03:24 155 15.0
2014-Jul-29 03:09 155 14.4
2014-Jul-29 02:54 155 14.4
2014-Jul-29 02:39 155 14.4
2014-Jul-29 02:24 155 14.4
2014-Jul-29 02:09 155 15.0
2014-Jul-29 01:54 155 15.0
2014-Jul-29 01:39 155 15.0
2014-Jul-29 01:24 155 15.0
2014-Jul-29 01:09 155 15.0
2014-Jul-29 00:54 155 15.0
2014-Jul-29 00:39 155 15.0
2014-Jul-29 00:24 155 15.0
2014-Jul-29 00:09 155 15.0
2014-Jul-28 23:54 155 15.6
2014-Jul-28 23:39 155 15.6
2014-Jul-28 23:24 155 16.1
2014-Jul-28 23:09 155 16.1
2014-Jul-28 22:54 155 16.1
2014-Jul-28 22:39 155 16.7
2014-Jul-28 22:24 155 16.7
2014-Jul-28 22:09 155 17.2
2014-Jul-28 21:54 155 17.8
2014-Jul-28 21:39 155 17.8
2014-Jul-28 21:23 155 18.3
2014-Jul-28 21:08 155 18.3
2014-Jul-28 20:53 155 18.9
2014-Jul-28 20:38 155 19.4
2014-Jul-28 20:23 155 20.0
2014-Jul-28 20:08 155 20.6
2014-Jul-28 19:53 155 21.7
2014-Jul-28 19:38 155 22.2
2014-Jul-28 19:22 155 22.8
2014-Jul-28 19:07 155 0 gusting 4 22.8
2014-Jul-28 18:52 150 0 gusting 3 23.3
2014-Jul-28 18:38 152 23.9
2014-Jul-28 18:22 151 0 gusting 4 23.9
2014-Jul-28 18:07 144 1 gusting 6 24.4
2014-Jul-28 17:51 169 4 gusting 8 24.4
2014-Jul-28 17:36 168 5 gusting 6 24.4
2014-Jul-28 17:21 160 25.0
2014-Jul-28 17:06 194 4 gusting 7 25.0